Location: Splawn
(30.9202°N, 96.9858°W)
Time: 21:21:30
(UTC+00:00)

Transit 4A - All Passes

Search period start: 28 February 2020 00:00
Search period end: 09 March 2020 00:00
Orbit: 872 x 973 km, 66.8° (Epoch: 27 February)

Date Brightness Start Highest point End Pass type
(mag) Time Alt. Az. Time Alt. Az. Time Alt. Az.
28 Feb - 04:02:53 10° S 04:08:24 40° ESE 04:13:50 10° NE night (unlit)
28 Feb - 05:49:58 10° WSW 05:54:46 25° WNW 05:59:33 10° N night (unlit)
28 Feb - 13:12:02 10° NNE 13:15:47 17° NE 13:19:34 10° E daylight
28 Feb - 14:56:41 10° NNW 15:02:30 63° WSW 15:08:26 10° SSE daylight
29 Feb - 04:11:43 10° SSW 04:17:37 65° ESE 04:23:25 10° NNE night (unlit)
29 Feb - 06:00:43 10° W 06:04:21 17° NW 06:07:59 10° NNW night (unlit)
29 Feb - 13:20:30 10° N 13:25:21 26° ENE 13:30:16 10° ESE daylight
29 Feb - 15:06:17 10° NW 15:11:43 39° WSW 15:17:16 10° S daylight
01 Mar - 02:40:29 10° ESE 02:41:19 10° ESE 02:42:09 10° E night (unlit)
01 Mar - 04:20:55 10° SSW 04:26:54 81° WNW 04:32:47 10° NNE night (unlit)
01 Mar - 06:13:04 10° WNW 06:14:04 10° NW 06:15:03 10° NW night (unlit)
01 Mar - 13:29:20 10° N 13:34:50 40° ENE 13:40:26 10° SE daylight
01 Mar - 15:16:14 10° NW 15:20:53 24° WSW 15:25:36 10° SSW daylight
02 Mar - 02:46:29 10° SSE 02:50:23 18° ESE 02:54:15 10° ENE night (unlit)
02 Mar - 04:30:29 10° SW 04:36:15 51° WNW 04:41:57 10° NNE night (unlit)
02 Mar - 13:38:23 10° NNW 13:44:14 62° ENE 13:50:11 10° SE daylight
02 Mar - 15:26:51 10° WNW 15:29:59 15° WSW 15:33:10 10° SW daylight
03 Mar - 02:54:26 10° SSE 02:59:31 29° ESE 03:04:31 10° NE night (unlit)
03 Mar - 04:40:24 10° WSW 04:45:40 33° WNW 04:50:55 10° N night (unlit)
03 Mar - 12:03:59 10° NNE 12:06:35 13° NE 12:09:13 10° ENE visible
03 Mar - 13:47:38 10° NNW 13:53:34 84° WSW 13:59:36 10° SSE daylight
04 Mar - 03:03:01 10° S 03:08:42 47° ESE 03:14:17 10° NE night (unlit)
04 Mar - 04:50:45 10° WSW 04:55:12 22° NW 04:59:37 10° N night (unlit)
04 Mar - 12:11:59 10° N 12:16:14 20° NE 12:20:31 10° E visible
04 Mar - 13:57:06 10° NW 14:02:49 53° WSW 14:08:39 10° S daylight
05 Mar - 03:11:59 10° SSW 03:17:56 77° ESE 03:23:48 10° NNE visible
05 Mar - 05:01:49 10° W 05:04:49 14° NW 05:07:48 10° NNW night (unlit)
05 Mar - 12:20:37 10° N 12:25:47 30° ENE 12:30:59 10° ESE visible
05 Mar - 14:06:47 10° NW 14:12:01 33° WSW 14:17:20 10° S daylight
06 Mar - 01:39:03 10° SE 01:41:33 13° ESE 01:44:03 10° ENE visible
06 Mar - 03:21:19 10° SSW 03:27:14 69° WNW 03:33:04 10° NNE visible
06 Mar - 12:29:32 10° NNW 12:35:13 47° ENE 12:40:59 10° SE daylight
06 Mar - 14:16:55 10° WNW 14:21:09 21° WSW 14:25:28 10° SSW daylight
07 Mar - 01:46:14 10° SSE 01:50:39 22° ESE 01:54:59 10° ENE visible
07 Mar - 03:31:00 10° SW 03:36:36 43° WNW 03:42:10 10° N visible
07 Mar - 12:38:40 10° NNW 12:44:35 74° ENE 12:50:37 10° SSE daylight
07 Mar - 14:28:04 10° W 14:30:15 12° WSW 14:32:26 10° SW daylight
08 Mar - 01:54:28 10° S 01:59:47 35° ESE 02:05:02 10° NE visible
08 Mar - 03:41:04 10° WSW 03:46:04 28° WNW 03:51:03 10° N visible
08 Mar - 11:03:42 10° NNE 11:07:04 15° NE 11:10:27 10° E visible
08 Mar - 12:47:59 10° NNW 12:53:53 72° WSW 12:59:55 10° SSE daylight
